Regional Weather Roundup
Issued by NWS Midland/Odessa, TX

Skip options and go directly to product.
Home | Oldest Version | Previous Version | Current Version | All | Text Only | Save Text | Print | Product List | Glossary Off

Skip product version selection by date and time.   

572
ASUS44 KMAF 251510
RWRMAF
MIDLAND AREA WEATHER ROUNDUP
NATIONAL WEATHER SERVICE MIDLAND TX
1000 AM CDT MON JUL 25 2016

...IN SOUTHWEST TEXAS AND SOUTHEAST NEW MEXICO...

CITY           SKY/WX    TMP DP  RH WIND       PRES   REMARKS
ALPINE         SUNNY     81  58  45 CALM      30.23R
ANDREWS        FAIR      85  63  46 S8        30.12S
ARTESIA        SUNNY     84  57  39 N9        30.14S
BIG SPRING     SUNNY     84  67  55 S8        30.10S
CARLSBAD       SUNNY     84  56  38 N6        30.11R
DRYDEN           N/A     84  70  62 E8        30.03R
FORT STOCKTON  SUNNY     86  66  51 S9        30.08R
GUAD PASS      SUNNY     81  54  39 NE9       30.26R
HOBBS          SUNNY     84  59  42 S6        30.15S
MARFA          PTSUNNY   82  59  45 VRB6      30.21R
MIDLAND AIRPK  SUNNY     86  65  49 S7        30.10S
MIDLAND INTL   SUNNY     86  66  51 S12       30.09S
ODESSA         SUNNY     85  65  51 S7        30.10S
PECOS          SUNNY     88  62  42 E5        30.05S
PRESIDIO       FAIR      87  63  44 E5        30.04F
SEMINOLE       SUNNY     85  60  42 W7        30.14R
SNYDER           N/A     85  66  53 SW10      30.08S
WINK           SUNNY     85  66  53 SE9       30.07R
$$
...OTHER STATIONS IN TEXAS...

CITY           SKY/WX    TMP DP  RH WIND       PRES   REMARKS
ABILENE        SUNNY     87  68  52 SW10      30.05S
AMARILLO       SUNNY     81  63  54 CALM      30.16R
AUSTIN         MOSUNNY   87  75  67 SW9       29.98F
BROWNSVILLE    MOSUNNY   89  75  63 S14       29.94S
CORPUS CHRISTI PTSUNNY   87  77  72 SE10      29.96F
DALLAS FTW     CLOUDY    87  72  60 SW5       29.98S
DEL RIO        SUNNY     85  72  65 SE9       29.97S
EL PASO        MOSUNNY   85  55  35 CALM      30.13R
HOUSTON INT    MOSUNNY   88  75  65 W8        29.96F
LUBBOCK        MOSUNNY   85  61  44 SW7       30.12S
SAN ANGELO     SUNNY     87  69  54 SE5       30.04F
SAN ANTONIO    CLOUDY    85  73  67 S8        30.00F
WACO           MOSUNNY   87  72  60 SW7       29.98F
WICHITA FALLS  NOT AVBL
$$
...OTHER LOCATIONS IN NEW MEXICO...

CITY           SKY/WX    TMP DP  RH WIND       PRES   REMARKS
ALAMAGORDO     SUNNY     86  54  32 SW5       30.16R
ALBUQUERQUE    MOSUNNY   81  52  36 E13       30.27S
CANNON AFB     SUNNY     80  60  51 VRB2      30.19S
CLOVIS         SUNNY     79  57  47 CALM      30.20R
HOLLOMAN AFB   NOT AVBL
ROSWELL        SUNNY     82  55  39 N9        30.14S
RUIDOSO          N/A     73  50  43 SE6       30.39R
SANTA FE       CLOUDY    75  49  39 S3        30.34S
TRUTH OR CONSE SUNNY     83  51  33 N10       30.20R
TUCUMCARI      SUNNY     80  60  50 NE8       30.19S
$$

USA.gov is the U.S. government's official web portal to all federal, state and local government web resources and services.